GW3202 Weather Reports


Display with metric or nautical units.
time (UTC)temp
F
wind
direction
speed
MPH
gust
MPH
rain 1hr
in
rain 24hr
in
rain mn
in
humidity
%
barometer
mb
20260504045004 67 138 10.0 22.0 0.00 0.00 0.00 91 1021.7
20260504044004 67 161 10.0 21.0 0.00 0.00 0.00 91 1021.4
20260504043003 67 154 6.0 21.0 0.00 0.00 0.00 91 1021.5
20260504042003 67 161 6.0 26.0 0.00 0.00 0.00 90 1021.3
20260504041003 68 142 14.0 28.0 0.00 0.00 0.00 90 1021.1
20260504040004 68 154 14.0 30.0 0.00 0.00 0.00 89 1021.0
20260504035004 68 120 17.0 30.0 0.00 0.00 0.00 89 1020.9
20260504034004 68 173 9.0 24.0 0.00 0.00 0.00 88 1020.6
20260504033004 68 148 12.0 29.0 0.00 0.00 0.00 89 1020.7
20260504032003 68 139 16.0 29.0 0.00 0.00 0.00 89 1020.5
20260504030007 69 164 10.0 25.0 0.00 0.00 0.00 88 1020.3
20260504025004 69 145 14.0 30.0 0.00 0.00 0.00 88 1020.0
20260504024004 69 137 9.0 29.0 0.00 0.00 0.00 88 1019.9
20260504023004 69 139 16.0 29.0 0.00 0.00 0.00 88 1019.9
20260504022003 69 136 13.0 29.0 0.00 0.00 0.00 88 1019.8
20260504021004 70 148 12.0 31.0 0.00 0.00 0.00 87 1019.5
20260504020003 70 137 21.0 31.0 0.00 0.00 0.00 86 1019.2
20260504015003 70 145 16.0 25.0 0.00 0.00 0.00 84 1019.2
20260504014003 71 153 10.0 25.0 0.00 0.00 0.00 83 1019.0
20260504013004 72 148 13.0 28.0 0.00 0.00 0.00 81 1018.9
20260504012003 73 149 17.0 25.0 0.00 0.00 0.00 78 1018.7
20260504011004 73 130 10.0 25.0 0.00 0.00 0.00 77 1018.6
20260504010004 74 161 10.0 24.0 0.00 0.00 0.00 75 1018.3
20260504004003 77 150 11.0 23.0 0.00 0.00 0.00 70 1018.1
20260504003003 77 158 9.0 20.0 0.00 0.00 0.00 68 1018.0
20260504002003 77 155 7.0 29.0 0.00 0.00 0.00 68 1017.9
20260504000003 79 158 11.0 25.0 0.00 0.00 0.00 64 1017.9
20260503235003 79 143 15.0 26.0 0.00 0.00 0.00 63 1017.8
20260503234004 80 147 7.0 26.0 0.00 0.00 0.00 61 1018.1
20260503233003 80 167 10.0 22.0 0.00 0.00 0.00 62 1017.9
20260503232003 81 153 13.0 22.0 0.00 0.00 0.00 56 1018.0
20260503231003 81 182 13.0 23.0 0.00 0.00 0.00 56 1017.9
20260503230004 83 163 9.0 18.0 0.00 0.00 0.00 51 1018.0
20260503225003 83 199 7.0 22.0 0.00 0.00 0.00 54 1018.0
20260503224004 84 162 7.0 18.0 0.00 0.00 0.00 51 1017.9
20260503223004 83 143 8.0 20.0 0.00 0.00 0.00 56 1018.1
20260503221003 85 218 6.0 20.0 0.00 0.00 0.00 50 1018.2
20260503220003 85 163 3.0 20.0 0.00 0.00 0.00 50 1018.2
20260503215008 86 211 4.0 13.0 0.00 0.00 0.00 48 1018.1
20260503214004 87 241 3.0 16.0 0.00 0.00 0.00 44 1018.2
20260503213003 85 140 7.0 15.0 0.00 0.00 0.00 47 1018.4
20260503212003 86 196 3.0 14.0 0.00 0.00 0.00 47 1018.4
20260503211004 87 203 6.0 15.0 0.00 0.00 0.00 42 1018.6
20260503210003 86 178 4.0 15.0 0.00 0.00 0.00 43 1018.6
20260503205004 87 197 7.0 13.0 0.00 0.00 0.00 43 1018.7
20260503204003 85 74 5.0 15.0 0.00 0.00 0.00 45 1019.0
20260503203004 87 150 4.0 15.0 0.00 0.00 0.00 45 1019.2
20260503202003 85 169 6.0 17.0 0.00 0.00 0.00 47 1019.2
20260503201003 85 106 7.0 16.0 0.00 0.00 0.00 49 1019.2
20260503200004 85 143 7.0 20.0 0.00 0.00 0.00 49 1019.2
20260503195005 86 135 3.0 13.0 0.00 0.00 0.00 46 1019.5
20260503194003 85 148 5.0 13.0 0.00 0.00 0.00 43 1019.6
20260503193004 86 185 2.0 17.0 0.00 0.00 0.00 46 1019.6
20260503192003 85 243 3.0 10.0 0.00 0.00 0.00 42 1019.9
20260503190003 83 125 9.0 14.0 0.00 0.00 0.00 43 1020.2
20260503184004 82 196 5.0 12.0 0.00 0.00 0.00 50 1020.4
20260503183004 83 171 5.0 15.0 0.00 0.00 0.00 50 1020.5
20260503181004 82 162 6.0 12.0 0.00 0.00 0.00 51 1020.9
20260503180004 81 180 3.0 12.0 0.00 0.00 0.00 54 1021.0
20260503175004 80 173 3.0 12.0 0.00 0.00 0.00 53 1021.0
20260503174003 80 246 3.0 15.0 0.00 0.00 0.00 57 1021.0
20260503173003 81 170 3.0 10.0 0.00 0.00 0.00 55 1021.1
20260503172004 80 248 5.0 9.0 0.00 0.00 0.00 60 1021.2
20260503171003 78 166 4.0 9.0 0.00 0.00 0.00 62 1021.2
20260503131004 65 12 0.0 2.0 0.00 0.00 0.00 91 1020.5
20260503081004 63 26 1.0 5.0 0.00 0.00 0.00 94 1019.4
20260503072004 64 108 3.0 5.0 0.00 0.00 0.00 93 1019.8
20260503071008 64 87 2.0 2.0 0.00 0.00 0.00 93 1019.7
20260503055003 66 153 1.0 5.0 0.00 0.00 0.00 90 1020.1
20260503054004 67 161 1.0 8.0 0.00 0.00 0.00 90 1020.1